Time,TemperatureF,DewpointF,PressureIn,WindDirection,WindDirectionDegrees,WindSpeedMPH,WindSpeedGustMPH,Humidity,HourlyPrecipIn,Conditions,Clouds,dailyrainin,SolarRadiationWatts/m^2,SoftwareType,DateUTC
2013-02-17 00:02:00,-7.0,-11.0,-100.00,East,88,1.0,4.0,81,0.00,,,0.00,0.000000,,2013-02-17 06:02:00,
2013-02-17 00:32:00,-11.0,-16.0,-100.00,ESE,111,0.0,4.0,76,0.00,,,0.00,0.000000,,2013-02-17 06:32:00,
2013-02-17 01:01:00,-11.0,-16.0,-100.00,ESE,111,0.0,4.0,76,0.00,,,0.00,0.000000,,2013-02-17 07:01:00,
2013-02-17 01:32:00,-13.0,-19.0,-100.00,West,278,2.0,2.0,75,0.00,,,0.00,0.000000,,2013-02-17 07:32:00,
2013-02-17 02:32:00,-14.0,-20.0,-100.00,NW,322,2.0,2.0,73,0.00,,,0.00,0.000000,,2013-02-17 08:32:00,
2013-02-17 03:32:00,-16.0,-23.0,-100.00,South,172,2.0,3.0,71,0.00,,,-99.99,0.000000,,2013-02-17 09:32:00,
2013-02-17 04:32:00,-15.0,-22.0,-100.00,East,81,1.0,4.0,70,0.00,,,0.00,0.000000,,2013-02-17 10:32:00,
2013-02-17 04:42:00,-15.0,-22.0,-100.00,East,81,1.0,4.0,70,0.00,,,0.00,0.000000,,2013-02-17 10:42:00,
2013-02-17 04:52:00,-15.0,-22.0,-100.00,East,81,1.0,4.0,70,0.00,,,0.00,0.000000,,2013-02-17 10:52:00,
2013-02-17 05:01:00,-15.0,-22.0,-100.00,East,81,1.0,4.0,70,0.00,,,0.00,0.000000,,2013-02-17 11:01:00,
2013-02-17 05:32:00,-17.0,-25.0,-100.00,SSW,199,2.0,2.0,67,0.00,,,0.00,0.000000,,2013-02-17 11:32:00,
2013-02-17 06:32:00,-16.0,-23.0,-100.00,NE,54,3.0,4.0,70,0.00,,,0.00,0.000000,,2013-02-17 12:32:00,
2013-02-17 06:42:00,-16.0,-23.0,-100.00,NE,54,3.0,4.0,70,0.00,,,0.00,0.000000,,2013-02-17 12:42:00,
2013-02-17 06:52:00,-16.0,-23.0,-100.00,NE,54,3.0,4.0,70,0.00,,,0.00,0.000000,,2013-02-17 12:52:00,
2013-02-17 07:02:00,-16.0,-23.0,-100.00,NE,54,3.0,4.0,70,0.00,,,0.00,0.000000,,2013-02-17 13:02:00,
2013-02-17 08:32:00,-9.0,-17.0,-100.00,WSW,250,0.0,2.0,66,-99.99,,,0.00,84.000000,,2013-02-17 14:32:00,
2013-02-17 08:42:00,-9.0,-17.0,-100.00,WSW,250,0.0,2.0,66,-99.99,,,0.00,84.000000,,2013-02-17 14:42:00,
2013-02-17 08:53:00,-9.0,-17.0,-100.00,WSW,250,0.0,2.0,66,-99.99,,,0.00,84.000000,,2013-02-17 14:53:00,
2013-02-17 09:02:00,-9.0,-17.0,-100.00,WSW,250,0.0,2.0,66,-99.99,,,0.00,84.000000,,2013-02-17 15:02:00,
2013-02-17 09:32:00,-2.0,-10.0,-100.00,NNE,13,1.0,3.0,67,0.00,,,0.00,252.000000,,2013-02-17 15:32:00,
2013-02-17 09:42:00,-2.0,-10.0,-100.00,NNE,13,1.0,3.0,67,0.00,,,0.00,252.000000,,2013-02-17 15:42:00,
2013-02-17 09:52:00,-2.0,-10.0,-100.00,NNE,13,1.0,3.0,67,0.00,,,0.00,252.000000,,2013-02-17 15:52:00,
2013-02-17 10:01:00,-2.0,-10.0,-100.00,NNE,13,1.0,3.0,67,0.00,,,0.00,252.000000,,2013-02-17 16:01:00,
2013-02-17 10:32:00,12.0,4.0,-100.00,SSE,157,6.0,10.0,68,0.00,,,0.00,414.000000,,2013-02-17 16:32:00,
2013-02-17 11:02:00,12.0,4.0,-100.00,SSE,157,6.0,10.0,68,0.00,,,0.00,414.000000,,2013-02-17 17:02:00,
2013-02-17 11:32:00,15.0,-3.0,-100.00,South,177,10.0,12.0,44,0.00,,,0.00,518.000000,,2013-02-17 17:32:00,
2013-02-17 11:42:00,15.0,-3.0,-100.00,South,177,10.0,12.0,44,0.00,,,0.00,518.000000,,2013-02-17 17:42:00,
2013-02-17 11:52:00,15.0,-3.0,-100.00,South,177,10.0,12.0,44,0.00,,,0.00,518.000000,,2013-02-17 17:52:00,
2013-02-17 12:02:00,15.0,-3.0,-100.00,South,177,10.0,12.0,44,0.00,,,0.00,518.000000,,2013-02-17 18:02:00,
2013-02-17 12:33:00,19.0,0.0,-100.00,South,173,8.0,13.0,42,0.00,,,0.00,610.000000,,2013-02-17 18:33:00,
2013-02-17 12:42:00,19.0,0.0,-100.00,South,173,8.0,13.0,42,0.00,,,0.00,610.000000,,2013-02-17 18:42:00,
2013-02-17 12:52:00,19.0,0.0,-100.00,South,173,8.0,13.0,42,0.00,,,0.00,610.000000,,2013-02-17 18:52:00,
2013-02-17 13:01:00,19.0,0.0,-100.00,South,173,8.0,13.0,42,0.00,,,0.00,610.000000,,2013-02-17 19:01:00,
2013-02-17 13:32:00,21.0,-1.0,-100.00,South,169,8.0,14.0,38,0.00,,,0.00,591.000000,,2013-02-17 19:32:00,
2013-02-17 13:42:00,21.0,-1.0,-100.00,South,169,8.0,14.0,38,0.00,,,0.00,591.000000,,2013-02-17 19:42:00,
2013-02-17 13:52:00,21.0,-1.0,-100.00,South,169,8.0,14.0,38,0.00,,,0.00,591.000000,,2013-02-17 19:52:00,
2013-02-17 14:02:00,21.0,-1.0,-100.00,South,169,8.0,14.0,38,0.00,,,0.00,591.000000,,2013-02-17 20:02:00,
2013-02-17 14:32:00,21.0,0.0,-100.00,SSE,152,9.0,14.0,39,0.00,,,0.00,506.000000,,2013-02-17 20:32:00,
2013-02-17 14:42:00,21.0,0.0,-100.00,SSE,152,9.0,14.0,39,0.00,,,0.00,506.000000,,2013-02-17 20:42:00,
2013-02-17 14:52:00,21.0,0.0,-100.00,SSE,152,9.0,14.0,39,0.00,,,0.00,506.000000,,2013-02-17 20:52:00,
2013-02-17 15:02:00,21.0,0.0,-100.00,SSE,152,9.0,14.0,39,0.00,,,0.00,506.000000,,2013-02-17 21:02:00,
2013-02-17 15:32:00,21.0,0.0,-100.00,SSE,148,11.0,16.0,39,0.00,,,0.00,341.000000,,2013-02-17 21:32:00,
2013-02-17 15:42:00,21.0,0.0,-100.00,SSE,148,11.0,16.0,39,0.00,,,0.00,341.000000,,2013-02-17 21:42:00,
2013-02-17 15:53:00,21.0,0.0,-100.00,SSE,148,11.0,16.0,39,0.00,,,0.00,341.000000,,2013-02-17 21:53:00,
2013-02-17 16:01:00,21.0,0.0,-100.00,SSE,148,11.0,16.0,39,0.00,,,0.00,341.000000,,2013-02-17 22:01:00,
2013-02-17 16:32:00,21.0,0.0,-100.00,SE,141,10.0,17.0,39,0.00,,,0.00,250.000000,,2013-02-17 22:32:00,
2013-02-17 16:42:00,21.0,0.0,-100.00,SE,141,10.0,17.0,39,0.00,,,0.00,250.000000,,2013-02-17 22:42:00,
2013-02-17 16:52:00,21.0,0.0,-100.00,SE,141,10.0,17.0,39,0.00,,,0.00,250.000000,,2013-02-17 22:52:00,
2013-02-17 17:02:00,21.0,0.0,-100.00,SE,141,10.0,17.0,39,0.00,,,0.00,250.000000,,2013-02-17 23:02:00,
2013-02-17 17:32:00,19.0,0.0,-100.00,SE,132,8.0,15.0,42,0.00,,,0.00,71.000000,,2013-02-17 23:32:00,
2013-02-17 17:42:00,19.0,0.0,-100.00,SE,132,8.0,15.0,42,0.00,,,0.00,71.000000,,2013-02-17 23:42:00,
2013-02-17 17:52:00,19.0,0.0,-100.00,SE,132,8.0,15.0,42,0.00,,,0.00,71.000000,,2013-02-17 23:52:00,
2013-02-17 18:01:00,19.0,0.0,-100.00,SE,132,8.0,15.0,42,0.00,,,0.00,71.000000,,2013-02-18 00:01:00,
2013-02-17 18:32:00,18.0,1.0,-100.00,SSE,150,9.0,17.0,46,0.00,,,0.00,6.000000,,2013-02-18 00:32:00,
2013-02-17 18:42:00,18.0,1.0,-100.00,SSE,150,9.0,17.0,46,0.00,,,0.00,6.000000,,2013-02-18 00:42:00,
2013-02-17 18:52:00,18.0,1.0,-100.00,SSE,150,9.0,17.0,46,0.00,,,0.00,6.000000,,2013-02-18 00:52:00,
2013-02-17 19:01:00,18.0,1.0,-100.00,SSE,150,9.0,17.0,46,0.00,,,0.00,6.000000,,2013-02-18 01:01:00,
2013-02-17 20:32:00,17.0,3.0,-100.00,SE,135,10.0,18.0,54,-99.99,,,0.00,0.000000,,2013-02-18 02:32:00,
2013-02-17 20:42:00,17.0,3.0,-100.00,SE,135,10.0,18.0,54,-99.99,,,0.00,0.000000,,2013-02-18 02:42:00,
2013-02-17 20:52:00,17.0,3.0,-100.00,SE,135,10.0,18.0,54,-99.99,,,0.00,0.000000,,2013-02-18 02:52:00,
2013-02-17 21:01:00,17.0,3.0,-100.00,SE,135,10.0,18.0,54,-99.99,,,0.00,0.000000,,2013-02-18 03:01:00,
2013-02-17 21:32:00,17.0,5.0,-100.00,SE,125,8.0,16.0,58,0.00,,,0.00,0.000000,,2013-02-18 03:32:00,
2013-02-17 21:42:00,17.0,5.0,-100.00,SE,125,8.0,16.0,58,0.00,,,0.00,0.000000,,2013-02-18 03:42:00,
2013-02-17 21:52:00,17.0,5.0,-100.00,SE,125,8.0,16.0,58,0.00,,,0.00,0.000000,,2013-02-18 03:52:00,
2013-02-17 22:01:00,17.0,5.0,-100.00,SE,125,8.0,16.0,58,0.00,,,0.00,0.000000,,2013-02-18 04:01:00,
2013-02-17 22:32:00,18.0,7.0,-100.00,SE,137,8.0,14.0,62,0.00,,,0.00,0.000000,,2013-02-18 04:32:00,
2013-02-17 22:42:00,18.0,7.0,-100.00,SE,137,8.0,14.0,62,0.00,,,0.00,0.000000,,2013-02-18 04:42:00,
2013-02-17 22:52:00,18.0,7.0,-100.00,SE,137,8.0,14.0,62,0.00,,,0.00,0.000000,,2013-02-18 04:52:00,
2013-02-17 23:02:00,18.0,7.0,-100.00,SE,137,8.0,14.0,62,0.00,,,0.00,0.000000,,2013-02-18 05:02:00,
2013-02-17 23:32:00,20.0,10.0,-100.00,SE,133,9.0,14.0,65,0.00,,,0.00,0.000000,,2013-02-18 05:32:00,
2013-02-17 23:42:00,20.0,10.0,-100.00,SE,133,9.0,14.0,65,0.00,,,0.00,0.000000,,2013-02-18 05:42:00,
2013-02-17 23:52:00,20.0,10.0,-100.00,SE,133,9.0,14.0,65,0.00,,,0.00,0.000000,,2013-02-18 05:52:00,